Location: Dob?e?
(49.9411°N, 15.1496°E)
Time: 19:45:42
(UTC+00:00)

DELFI C3 - Pass Details

Date: 23 October 2021
Orbit: 529 x 543 km, 97.4° (Epoch: 04 December)

Event Time Altitude Azimuth Distance (km) Brightness Sun altitude
Exits shadow 18:39:40 35° 250° (WSW) 879 ? -27.4°
Maximum altitude 18:40:02 35° 263° (W) 865 ? -27.5°
Drops below altitude 10° 18:43:36 10° 331° (NNW) 1,789 ? -28.0°
Sets 18:45:51 0° 340° (NNW) 2,685 ? -28.4°
